Regional Weather Roundup
Issued by NWS

Home | Current Version | Previous Version | Graphics & Text | Print | Product List | Glossary On
Versions: 1 2 3 4 5 6 7 8 9 10 11 12 13 14 15 16 17 18 19 20 21 22 23 24 25 26 27 28 29 30 31 32 33 34 35 36 37 38 39 40 41 42 43 44 45 46 47 48 49 50
000
ASUS45 KABQ 260010
RWRNM
WEATHER ROUNDUP FOR NEW MEXICO
NATIONAL WEATHER SERVICE ALBUQUERQUE NM
600 PM MDT SAT OCT 25 2014

NOTE: "FAIR" MEANS FEW OR NO CLOUDS BELOW 12,000 FEET AGL WITH NO
       SIGNIFICANT WEATHER OR OBSTRUCTIONS TO VISION.

      THIS PRODUCT IS RELEASED AS TWO VERSIONS.  ONE VERSION NEAR
      THE TOP OF THE HOUR CONTAINING PRELIMINARY DATA FROM ALBUQUERQUE
      AND OTHER STATIONS.  A FINAL VERSION WITH ADDITIONAL DATA IS
      ISSUED ABOUT 10 MINUTES AFTER THE HOUR.

NMZ501-503-504-510>518-260100-
NORTHWEST PLATEAU/NORTHCENTRAL MOUNTAINS

CITY           SKY/WX    TMP DP  RH WIND       PRES   REMARKS
FARMINGTON     CLEAR     75  33  21 NW5       30.16F
6HR MIN TEMP:  66; 6HR MAX TEMP:  78;

LOS ALAMOS     CLEAR     70  23  17 CALM      30.27F
SANTA FE       CLEAR     71  27  19 SW12      30.22S
6HR MIN TEMP:  70; 6HR MAX TEMP:  79;

TAOS           CLEAR     70  21  16 SW9       30.25F
ANGEL FIRE     FAIR      62  15  16 SW9       30.33S

$$
NMZ402-403-502-505>509-260100-
WESTCENTRAL MOUNTAINS/SOUTHWEST MOUNTAINS

CITY           SKY/WX    TMP DP  RH WIND       PRES   REMARKS
GALLUP         CLEAR     71  36  27 SW9       30.26F
6HR MIN TEMP:  70; 6HR MAX TEMP:  75;

GRANTS         CLEAR     72  30  21 W7        30.27F
SILVER CITY    CLEAR     75  36  23 NW9       30.24F

$$
NMZ407-409-411-412-260100-
SOUTHERN DESERTS

CITY           SKY/WX    TMP DP  RH WIND       PRES   REMARKS
LORDSBURG      FAIR      81  41  24 W10       30.14F
DEMING         CLEAR     80  41  24 W10       30.15F
6HR MIN TEMP:  75; 6HR MAX TEMP:  84;

LAS CRUCES     CLEAR     79  41  26 W8        30.18S
HOLLOMAN AFB   PTCLDY    80  43  26 SE7       30.12F
T OR C         CLEAR     80  41  24 S8        30.14F
6HR MIN TEMP:  72; 6HR MAX TEMP:  82;


$$
NMZ519>523-260100-
CENTRAL VALLEYS/CENTRAL HIGHLANDS

CITY           SKY/WX    TMP DP  RH WIND       PRES   REMARKS
ALBUQUERQUE    CLEAR     76  33  21 S8        30.17F
6HR MIN TEMP:  68; 6HR MAX TEMP:  78;

DOUBLE EAGLE   CLEAR     73  36  25 SE9       30.20F
MORIARTY ARPT  FAIR      72  28  19 W8        30.24F
6HR MIN TEMP:  71; 6HR MAX TEMP:  81;

CLINES CORNERS CLEAR     69  27  20 W15       30.27S
6HR MIN TEMP:  69; 6HR MAX TEMP:  77;

BELEN          FAIR      76  36  23 SE7       30.17F
6HR MIN TEMP:  69; 6HR MAX TEMP:  81;

SOCORRO        FAIR      77  39  25 S5        30.15F
6HR MIN TEMP:  69; 6HR MAX TEMP:  81;


$$
NMZ524>526-539-540-260100-
SOUTHCENTRAL MOUNTAINS

CITY           SKY/WX    TMP DP  RH WIND       PRES   REMARKS
RUIDOSO        CLEAR     66  36  32 SW8       30.31S

$$
NMZ527>531-260100-
NORTHEAST HIGHLANDS/NORTHEAST PLAINS

CITY           SKY/WX    TMP DP  RH WIND       PRES   REMARKS
LAS VEGAS      CLEAR     70  22  16 SW17      30.21S
6HR MIN TEMP:  70; 6HR MAX TEMP:  81;

RATON          CLEAR     72  24  16 S13       30.13F
6HR MIN TEMP:  72; 6HR MAX TEMP:  83;

CLAYTON        CLEAR     73  29  19 S13       30.08F
6HR MIN TEMP:  73; 6HR MAX TEMP:  86;


$$
NMZ532>537-260100-
EASTCENTRAL PLAINS

CITY           SKY/WX    TMP DP  RH WIND       PRES   REMARKS
TUCUMCARI      CLEAR     80  40  23 S9        30.05F
6HR MIN TEMP:  80; 6HR MAX TEMP:  89;

CANNON AFB     CLEAR     76  40  27 SW9       30.12S
6HR MIN TEMP:  76; 6HR MAX TEMP:  85;

CLOVIS AIRPORT CLEAR     75  41  29 SW9       30.13F

$$
NMZ028-029-538-260100-
SOUTHEAST PLAINS

CITY           SKY/WX    TMP DP  RH WIND       PRES   REMARKS
ROSWELL        CLEAR     77  52  41 SE8       30.08F
6HR MIN TEMP:  74; 6HR MAX TEMP:  84;

CARLSBAD       CLEAR     78  57  48 SE7       30.06F
6HR MIN TEMP:  74; 6HR MAX TEMP:  84;

HOBBS          CLEAR     77  50  38 S7        30.13S


$$



USA.gov is the U.S. government's official web portal to all federal, state and local government web resources and services.